User: anonymous   Login
Location: Caltech
(34.1382°N, 118.1253°W)
Time: 05:05:30
(UTC-07:00)
Language:

Oscar 11 - Orbit

View from above orbital plane
View from above orbital plane
View from above satellite
View from above satellite

Ground track
Ground track

The orbit data is extracted from the following two-line orbital elements,

1 14781U 84021B   16119.43317725  .00000190  00000-0  29857-4 0  9991
2 14781  97.7545 172.9455 0009983 114.1364 246.0895 14.82724422728885
Epoch (UTC): 28 April 2016 10:23:46
Eccentricity: 0.0009983
inclination: 97.7545°
perigee height: 614 km
apogee height: 628 km
right ascension of ascending node: 172.9455°
argument of perigee: 114.1364°
revolutions per day: 14.82724422
mean anomaly at epoch: 246.0895°
orbit number at epoch: 72888

The dashed part of the orbit path shows where the satellite is in the earth's shadow,  

DLR